| time (UTC) | temp F | wind direction | speed MPH | gust MPH | rain 1hr in | rain 24hr in | rain mn in | humidity % | barometer mb |
| 20260506212503 | 29 | 97 | 2.0 | 6.0 | 0.08 | 0.19 | 0.15 | 93 | 1030.7 |
| 20260506212003 | 29 | 108 | 3.0 | 9.0 | 0.08 | 0.18 | 0.14 | 93 | 1030.7 |
| 20260506211721 | 29 | 108 | 3.0 | 9.0 | 0.08 | 0.18 | 0.14 | 93 | 1030.7 |
| 20260506211003 | 29 | 104 | 3.0 | 8.0 | 0.08 | 0.17 | 0.13 | 93 | 1030.7 |
| 20260506210503 | 29 | 111 | 3.0 | 8.0 | 0.07 | 0.16 | 0.12 | 93 | 1030.6 |
| 20260506210004 | 29 | 110 | 3.0 | 7.0 | 0.06 | 0.15 | 0.11 | 93 | 1030.5 |
| 20260506205503 | 29 | 102 | 3.0 | 9.0 | 0.06 | 0.14 | 0.10 | 93 | 1030.5 |
| 20260506205003 | 28 | 96 | 3.0 | 9.0 | 0.05 | 0.13 | 0.09 | 93 | 1030.4 |
| 20260506204503 | 28 | 96 | 2.0 | 6.0 | 0.06 | 0.13 | 0.09 | 93 | 1030.4 |
| 20260506204003 | 28 | 104 | 2.0 | 7.0 | 0.05 | 0.12 | 0.08 | 93 | 1030.5 |
| 20260506203503 | 28 | 102 | 2.0 | 7.0 | 0.04 | 0.11 | 0.07 | 93 | 1030.5 |
| 20260506203003 | 28 | 98 | 3.0 | 7.0 | 0.05 | 0.11 | 0.07 | 93 | 1030.5 |
| 20260506202503 | 27 | 95 | 2.0 | 9.0 | 0.05 | 0.11 | 0.07 | 93 | 1030.6 |
| 20260506202003 | 27 | 101 | 2.0 | 9.0 | 0.04 | 0.10 | 0.06 | 93 | 1030.5 |
| 20260506201721 | 27 | 103 | 2.0 | 6.0 | 0.04 | 0.10 | 0.06 | 93 | 1030.6 |
| 20260506201003 | 27 | 95 | 2.0 | 7.0 | 0.04 | 0.09 | 0.05 | 93 | 1030.6 |
| 20260506200504 | 26 | 91 | 2.0 | 7.0 | 0.04 | 0.09 | 0.05 | 93 | 1030.2 |
| 20260506200220 | 26 | 89 | 2.0 | 8.0 | 0.04 | 0.09 | 0.05 | 93 | 1030.1 |
| 20260506195503 | 26 | 92 | 3.0 | 8.0 | 0.03 | 0.08 | 0.04 | 93 | 1030.2 |
| 20260506195003 | 25 | 99 | 2.0 | 6.0 | 0.03 | 0.08 | 0.04 | 93 | 1030.3 |
| 20260506194503 | 25 | 95 | 3.0 | 8.0 | 0.02 | 0.07 | 0.03 | 93 | 1030.3 |
| 20260506194003 | 25 | 87 | 3.0 | 8.0 | 0.02 | 0.07 | 0.03 | 93 | 1030.3 |
| 20260506193720 | 25 | 88 | 2.0 | 8.0 | 0.02 | 0.07 | 0.03 | 93 | 1030.2 |
| 20260506193003 | 25 | 95 | 2.0 | 8.0 | 0.02 | 0.06 | 0.02 | 93 | 1030.1 |
| 20260506192503 | 25 | 94 | 2.0 | 8.0 | 0.02 | 0.06 | 0.02 | 93 | 1030.4 |
| 20260506192003 | 25 | 97 | 2.0 | 8.0 | 0.02 | 0.06 | 0.02 | 93 | 1030.1 |
| 20260506191503 | 25 | 92 | 3.0 | 11.0 | 0.02 | 0.06 | 0.02 | 93 | 1030.0 |
| 20260506191003 | 25 | 89 | 3.0 | 11.0 | 0.01 | 0.05 | 0.01 | 93 | 1029.9 |
| 20260506190718 | 25 | 88 | 3.0 | 11.0 | 0.01 | 0.05 | 0.01 | 93 | 1029.8 |
| 20260506190004 | 25 | 89 | 3.0 | 8.0 | 0.01 | 0.05 | 0.01 | 93 | 1029.7 |
| 20260506185503 | 25 | 87 | 3.0 | 8.0 | 0.01 | 0.05 | 0.01 | 93 | 1029.7 |
| 20260506185217 | 25 | 90 | 3.0 | 10.0 | 0.01 | 0.05 | 0.01 | 93 | 1029.8 |
| 20260506184503 | 26 | 101 | 3.0 | 10.0 | 0.01 | 0.05 | 0.01 | 93 | 1030.0 |
| 20260506184003 | 26 | 101 | 3.0 | 9.0 | 0.01 | 0.05 | 0.01 | 93 | 1030.1 |
| 20260506183503 | 26 | 99 | 3.0 | 9.0 | 0.00 | 0.04 | 0.00 | 93 | 1030.1 |
| 20260506183004 | 26 | 102 | 3.0 | 7.0 | 0.00 | 0.04 | 0.00 | 93 | 1030.2 |
| 20260506182716 | 26 | 100 | 3.0 | 8.0 | 0.00 | 0.04 | 0.00 | 93 | 1030.4 |
| 20260506182003 | 25 | 102 | 3.0 | 9.0 | 0.00 | 0.04 | 0.00 | 93 | 1030.2 |
| 20260506181503 | 25 | 99 | 4.0 | 9.0 | 0.00 | 0.04 | 0.00 | 93 | 1030.1 |
| 20260506181003 | 24 | 99 | 3.0 | 7.0 | 0.00 | 0.04 | 0.00 | 93 | 1030.1 |
| 20260506180503 | 24 | 92 | 3.0 | 8.0 | 0.00 | 0.04 | 0.00 | 92 | 1030.1 |
| 20260506180221 | 24 | 92 | 3.0 | 8.0 | 0.00 | 0.04 | 0.00 | 92 | 1030.1 |
| 20260506175503 | 24 | 94 | 3.0 | 7.0 | 0.00 | 0.04 | 0.00 | 92 | 1030.1 |
| 20260506175003 | 23 | 93 | 3.0 | 7.0 | 0.00 | 0.04 | 0.00 | 92 | 1030.0 |
| 20260506174720 | 23 | 93 | 3.0 | 7.0 | 0.00 | 0.04 | 0.00 | 92 | 1030.1 |
| 20260506174003 | 23 | 87 | 3.0 | 7.0 | 0.00 | 0.04 | 0.00 | 92 | 1030.1 |
| 20260506173503 | 23 | 88 | 2.0 | 7.0 | 0.00 | 0.04 | 0.00 | 92 | 1030.1 |
| 20260506173003 | 22 | 87 | 2.0 | 7.0 | 0.00 | 0.04 | 0.00 | 92 | 1030.1 |
| 20260506172503 | 22 | 87 | 2.0 | 7.0 | 0.00 | 0.04 | 0.00 | 92 | 1030.1 |
| 20260506172003 | 22 | 89 | 3.0 | 7.0 | 0.00 | 0.04 | 0.00 | 92 | 1029.9 |
| 20260506171503 | 22 | 90 | 3.0 | 10.0 | 0.00 | 0.04 | 0.00 | 92 | 1029.9 |
| 20260506171003 | 22 | 89 | 3.0 | 10.0 | 0.00 | 0.04 | 0.00 | 92 | 1029.8 |
| 20260506170719 | 22 | 90 | 3.0 | 8.0 | 0.00 | 0.04 | 0.00 | 91 | 1029.7 |
| 20260506170217 | 22 | 90 | 2.0 | 6.0 | 0.00 | 0.04 | 0.00 | 91 | 1029.7 |
| 20260506165503 | 21 | 87 | 2.0 | 7.0 | 0.00 | 0.04 | 0.00 | 91 | 1029.6 |
| 20260506165003 | 21 | 88 | 3.0 | 7.0 | 0.00 | 0.04 | 0.00 | 91 | 1029.4 |
| 20260506164503 | 21 | 85 | 3.0 | 8.0 | 0.00 | 0.04 | 0.00 | 91 | 1029.4 |
| 20260506164003 | 21 | 84 | 3.0 | 10.0 | 0.00 | 0.04 | 0.00 | 91 | 1029.6 |
| 20260506163503 | 21 | 85 | 4.0 | 10.0 | 0.00 | 0.04 | 0.00 | 91 | 1029.4 |
| 20260506163004 | 21 | 85 | 4.0 | 10.0 | 0.00 | 0.04 | 0.00 | 91 | 1029.3 |
| 20260506162503 | 22 | 91 | 3.0 | 8.0 | 0.00 | 0.04 | 0.00 | 91 | 1029.3 |
| 20260506162003 | 22 | 91 | 2.0 | 9.0 | 0.00 | 0.04 | 0.00 | 91 | 1029.0 |
| 20260506161503 | 22 | 84 | 2.0 | 9.0 | 0.00 | 0.04 | 0.00 | 91 | 1029.3 |
| 20260506161003 | 22 | 90 | 1.0 | 5.0 | 0.00 | 0.04 | 0.00 | 91 | 1029.3 |
| 20260506160720 | 22 | 90 | 1.0 | 3.0 | 0.00 | 0.04 | 0.00 | 91 | 1029.3 |
| 20260506160003 | 22 | 96 | 1.0 | 4.0 | 0.00 | 0.04 | 0.00 | 91 | 1028.7 |
| 20260506155503 | 22 | 90 | 2.0 | 8.0 | 0.00 | 0.04 | 0.00 | 91 | 1028.1 |
| 20260506155003 | 22 | 86 | 4.0 | 11.0 | 0.00 | 0.04 | 0.00 | 91 | 1027.5 |
| 20260506154503 | 22 | 85 | 5.0 | 11.0 | 0.00 | 0.04 | 0.00 | 91 | 1027.4 |
| 20260506154003 | 22 | 86 | 4.0 | 11.0 | 0.00 | 0.04 | 0.00 | 91 | 1027.2 |
| 20260506153503 | 22 | 87 | 4.0 | 11.0 | 0.00 | 0.04 | 0.00 | 91 | 1027.1 |
| 20260506153003 | 22 | 87 | 3.0 | 10.0 | 0.00 | 0.04 | 0.00 | 91 | 1027.1 |
| 20260506152719 | 23 | 90 | 3.0 | 10.0 | 0.00 | 0.04 | 0.00 | 91 | 1027.0 |
| 20260506152003 | 23 | 99 | 4.0 | 8.0 | 0.00 | 0.04 | 0.00 | 91 | 1027.0 |
| 20260506151503 | 23 | 98 | 4.0 | 8.0 | 0.00 | 0.04 | 0.00 | 91 | 1027.0 |
| 20260506151003 | 23 | 94 | 4.0 | 8.0 | 0.00 | 0.04 | 0.00 | 91 | 1027.1 |
| 20260506150503 | 24 | 95 | 3.0 | 8.0 | 0.00 | 0.04 | 0.00 | 92 | 1027.1 |
| 20260506150219 | 24 | 99 | 3.0 | 8.0 | 0.00 | 0.04 | 0.00 | 92 | 1027.2 |
| 20260506145503 | 24 | 99 | 3.0 | 9.0 | 0.00 | 0.04 | 0.00 | 92 | 1027.2 |
| 20260506145003 | 23 | 103 | 3.0 | 9.0 | 0.00 | 0.04 | 0.00 | 91 | 1027.2 |
| 20260506144503 | 23 | 100 | 3.0 | 8.0 | 0.00 | 0.04 | 0.00 | 92 | 1027.2 |
| 20260506144003 | 23 | 96 | 3.0 | 10.0 | 0.00 | 0.04 | 0.00 | 92 | 1027.1 |
| 20260506143503 | 23 | 95 | 3.0 | 10.0 | 0.00 | 0.04 | 0.00 | 91 | 1027.1 |
| 20260506143003 | 23 | 98 | 3.0 | 8.0 | 0.00 | 0.04 | 0.00 | 91 | 1027.0 |
| 20260506142503 | 23 | 102 | 2.0 | 8.0 | 0.00 | 0.04 | 0.00 | 92 | 1027.3 |
| 20260506142003 | 23 | 88 | 2.0 | 4.0 | 0.00 | 0.04 | 0.00 | 91 | 1027.4 |
| 20260506141503 | 23 | 86 | 2.0 | 4.0 | 0.00 | 0.04 | 0.00 | 92 | 1027.4 |
| 20260506141218 | 23 | 89 | 2.0 | 4.0 | 0.00 | 0.04 | 0.00 | 92 | 1027.5 |
| 20260506140504 | 23 | 90 | 2.0 | 4.0 | 0.00 | 0.04 | 0.00 | 92 | 1027.4 |
| 20260506140004 | 23 | 86 | 3.0 | 7.0 | 0.00 | 0.04 | 0.00 | 92 | 1027.5 |
| 20260506135717 | 23 | 86 | 3.0 | 7.0 | 0.00 | 0.04 | 0.00 | 92 | 1027.5 |
| 20260506135220 | 23 | 85 | 3.0 | 8.0 | 0.00 | 0.04 | 0.00 | 92 | 1027.4 |
| 20260506134503 | 23 | 91 | 4.0 | 8.0 | 0.00 | 0.04 | 0.00 | 92 | 1027.3 |
| 20260506134221 | 23 | 92 | 4.0 | 8.0 | 0.00 | 0.04 | 0.00 | 92 | 1027.4 |
| 20260506133503 | 23 | 87 | 4.0 | 8.0 | 0.00 | 0.04 | 0.00 | 91 | 1027.3 |
| 20260506133003 | 23 | 90 | 3.0 | 7.0 | 0.00 | 0.04 | 0.00 | 91 | 1027.2 |
| 20260506132503 | 23 | 93 | 2.0 | 7.0 | 0.00 | 0.04 | 0.00 | 92 | 1027.2 |
| 20260506132003 | 23 | 91 | 3.0 | 6.0 | 0.00 | 0.04 | 0.00 | 91 | 1026.9 |
| 20260506131503 | 23 | 88 | 2.0 | 4.0 | 0.00 | 0.04 | 0.00 | 91 | 1026.9 |
| 20260506131003 | 23 | 86 | 2.0 | 4.0 | 0.00 | 0.04 | 0.00 | 91 | 1027.0 |
| 20260506130503 | 24 | 85 | 2.0 | 3.0 | 0.00 | 0.04 | 0.00 | 91 | 1027.0 |
| 20260506130003 | 24 | 85 | 1.0 | 3.0 | 0.00 | 0.04 | 0.00 | 91 | 1026.9 |
| 20260506125503 | 24 | 85 | 1.0 | 4.0 | 0.00 | 0.04 | 0.00 | 92 | 1026.9 |
| 20260506125003 | 24 | 84 | 2.0 | 4.0 | 0.00 | 0.04 | 0.00 | 92 | 1027.0 |
| 20260506124503 | 24 | 86 | 1.0 | 3.0 | 0.00 | 0.04 | 0.00 | 92 | 1026.9 |
| 20260506124003 | 24 | 87 | 2.0 | 4.0 | 0.00 | 0.04 | 0.00 | 92 | 1026.8 |
| 20260506123720 | 24 | 88 | 2.0 | 4.0 | 0.00 | 0.04 | 0.00 | 91 | 1026.8 |
| 20260506123003 | 24 | 92 | 2.0 | 4.0 | 0.00 | 0.04 | 0.00 | 92 | 1026.7 |
| 20260506122503 | 24 | 91 | 1.0 | 4.0 | 0.00 | 0.04 | 0.00 | 92 | 1026.7 |
| 20260506122003 | 24 | 88 | 1.0 | 4.0 | 0.00 | 0.04 | 0.00 | 92 | 1026.6 |
| 20260506121721 | 24 | 88 | 1.0 | 4.0 | 0.00 | 0.04 | 0.00 | 92 | 1026.7 |
| 20260506121003 | 24 | 86 | 2.0 | 4.0 | 0.00 | 0.04 | 0.00 | 92 | 1026.3 |
| 20260506120503 | 24 | 88 | 2.0 | 4.0 | 0.00 | 0.04 | 0.00 | 92 | 1026.4 |
| 20260506120004 | 24 | 88 | 2.0 | 4.0 | 0.00 | 0.04 | 0.00 | 92 | 1026.3 |
| 20260506115503 | 24 | 87 | 2.0 | 7.0 | 0.00 | 0.04 | 0.00 | 92 | 1026.2 |
| 20260506115003 | 24 | 86 | 3.0 | 9.0 | 0.00 | 0.04 | 0.00 | 92 | 1026.2 |
| 20260506114503 | 24 | 86 | 3.0 | 9.0 | 0.00 | 0.04 | 0.00 | 92 | 1026.0 |
| 20260506114003 | 24 | 88 | 2.0 | 6.0 | 0.00 | 0.04 | 0.00 | 92 | 1025.9 |
| 20260506113503 | 24 | 88 | 2.0 | 6.0 | 0.00 | 0.04 | 0.00 | 92 | 1025.8 |
| 20260506113003 | 25 | 87 | 2.0 | 6.0 | 0.00 | 0.04 | 0.00 | 92 | 1025.6 |
| 20260506112503 | 25 | 87 | 2.0 | 6.0 | 0.00 | 0.04 | 0.00 | 92 | 1025.5 |
| 20260506112219 | 25 | 90 | 2.0 | 6.0 | 0.00 | 0.04 | 0.00 | 92 | 1025.5 |
| 20260506111503 | 25 | 94 | 3.0 | 7.0 | 0.00 | 0.04 | 0.00 | 92 | 1025.4 |
| 20260506111003 | 25 | 91 | 2.0 | 6.0 | 0.00 | 0.04 | 0.00 | 92 | 1025.3 |
| 20260506110503 | 25 | 92 | 2.0 | 6.0 | 0.00 | 0.04 | 0.00 | 92 | 1025.3 |
| 20260506110003 | 25 | 91 | 2.0 | 6.0 | 0.00 | 0.04 | 0.00 | 92 | 1025.3 |
| 20260506105503 | 25 | 86 | 2.0 | 5.0 | 0.00 | 0.04 | 0.00 | 92 | 1025.3 |
| 20260506105003 | 25 | 87 | 2.0 | 5.0 | 0.00 | 0.04 | 0.00 | 92 | 1025.2 |
| 20260506104503 | 25 | 89 | 2.0 | 7.0 | 0.00 | 0.04 | 0.00 | 92 | 1025.3 |
| 20260506104003 | 26 | 89 | 2.0 | 7.0 | 0.00 | 0.04 | 0.00 | 92 | 1025.3 |
| 20260506103503 | 26 | 87 | 2.0 | 6.0 | 0.00 | 0.04 | 0.00 | 92 | 1025.2 |
| 20260506103219 | 26 | 87 | 2.0 | 6.0 | 0.00 | 0.04 | 0.00 | 92 | 1025.2 |
| 20260506102503 | 26 | 88 | 2.0 | 4.0 | 0.00 | 0.04 | 0.00 | 92 | 1025.3 |
| 20260506102003 | 26 | 95 | 1.0 | 3.0 | 0.00 | 0.04 | 0.00 | 92 | 1025.4 |
| 20260506101717 | 26 | 100 | 1.0 | 4.0 | 0.00 | 0.04 | 0.00 | 92 | 1025.5 |
| 20260506101003 | 26 | 99 | 2.0 | 6.0 | 0.00 | 0.04 | 0.00 | 92 | 1025.6 |
| 20260506100503 | 26 | 92 | 2.0 | 6.0 | 0.00 | 0.04 | 0.00 | 92 | 1025.5 |
| 20260506100003 | 26 | 93 | 1.0 | 6.0 | 0.00 | 0.04 | 0.00 | 92 | 1025.4 |
| 20260506095720 | 26 | 92 | 1.0 | 6.0 | 0.00 | 0.04 | 0.00 | 92 | 1025.4 |
| 20260506095003 | 26 | 87 | 2.0 | 6.0 | 0.00 | 0.04 | 0.00 | 92 | 1025.3 |
| 20260506094503 | 26 | 88 | 2.0 | 6.0 | 0.00 | 0.04 | 0.00 | 92 | 1025.5 |
| 20260506094003 | 26 | 87 | 2.0 | 6.0 | 0.00 | 0.04 | 0.00 | 92 | 1025.5 |
| 20260506093503 | 26 | 90 | 2.0 | 6.0 | 0.00 | 0.04 | 0.00 | 92 | 1025.4 |
| 20260506093003 | 26 | 97 | 2.0 | 6.0 | 0.00 | 0.04 | 0.00 | 92 | 1025.4 |
| 20260506092503 | 26 | 94 | 2.0 | 6.0 | 0.00 | 0.04 | 0.00 | 92 | 1025.4 |
| 20260506092003 | 27 | 91 | 1.0 | 5.0 | 0.00 | 0.04 | 0.00 | 93 | 1025.4 |
| 20260506091503 | 27 | 92 | 2.0 | 4.0 | 0.00 | 0.04 | 0.00 | 93 | 1025.4 |
| 20260506091003 | 27 | 96 | 2.0 | 7.0 | 0.00 | 0.04 | 0.00 | 93 | 1025.4 |
| 20260506090503 | 27 | 101 | 1.0 | 7.0 | 0.00 | 0.04 | 0.00 | 93 | 1025.4 |
| 20260506090217 | 27 | 100 | 1.0 | 7.0 | 0.00 | 0.04 | 0.00 | 93 | 1025.4 |
| 20260506085503 | 27 | 85 | 1.0 | 6.0 | 0.00 | 0.04 | 0.00 | 93 | 1025.4 |
| 20260506085003 | 27 | 84 | 2.0 | 6.0 | 0.00 | 0.04 | 0.00 | 93 | 1025.4 |
| 20260506084503 | 27 | 84 | 2.0 | 6.0 | 0.00 | 0.04 | 0.00 | 93 | 1025.4 |
| 20260506084003 | 27 | 85 | 2.0 | 4.0 | 0.00 | 0.04 | 0.00 | 93 | 1025.5 |
| 20260506083503 | 27 | 85 | 2.0 | 4.0 | 0.00 | 0.04 | 0.00 | 93 | 1025.5 |
| 20260506083220 | 27 | 85 | 2.0 | 4.0 | 0.00 | 0.04 | 0.00 | 93 | 1025.6 |
| 20260506082503 | 27 | 87 | 2.0 | 6.0 | 0.00 | 0.04 | 0.00 | 93 | 1025.6 |
| 20260506082003 | 27 | 86 | 2.0 | 6.0 | 0.00 | 0.04 | 0.00 | 93 | 1025.7 |
| 20260506081719 | 27 | 89 | 2.0 | 6.0 | 0.00 | 0.04 | 0.00 | 93 | 1025.7 |
| 20260506081003 | 27 | 95 | 1.0 | 4.0 | 0.00 | 0.04 | 0.00 | 93 | 1025.7 |
| 20260506080503 | 27 | 89 | 1.0 | 3.0 | 0.00 | 0.04 | 0.00 | 93 | 1025.8 |
| 20260506080218 | 27 | 90 | 1.0 | 3.0 | 0.00 | 0.04 | 0.00 | 93 | 1025.8 |
| 20260506073503 | 27 | 93 | 1.0 | 3.0 | 0.00 | 0.04 | 0.00 | 93 | 1025.8 |
| 20260506073003 | 27 | 101 | 1.0 | 2.0 | 0.00 | 0.04 | 0.00 | 93 | 1025.8 |
| 20260506072504 | 27 | 98 | 1.0 | 3.0 | 0.00 | 0.04 | 0.00 | 93 | 1025.8 |
| 20260506072003 | 27 | 90 | 1.0 | 6.0 | 0.00 | 0.04 | 0.00 | 93 | 1025.8 |
| 20260506071503 | 27 | 87 | 1.0 | 6.0 | 0.00 | 0.04 | 0.00 | 93 | 1025.9 |
| 20260506071003 | 27 | 87 | 2.0 | 4.0 | 0.00 | 0.04 | 0.00 | 93 | 1025.9 |
| 20260506070503 | 27 | 86 | 1.0 | 4.0 | 0.00 | 0.04 | 0.00 | 93 | 1025.9 |
| 20260506062503 | 27 | 99 | 0.0 | 3.0 | 0.00 | 0.04 | 0.00 | 93 | 1026.0 |
| 20260506062003 | 27 | 98 | 0.0 | 2.0 | 0.00 | 0.04 | 0.00 | 93 | 1026.2 |
| 20260506061503 | 27 | 98 | 0.0 | 2.0 | 0.00 | 0.04 | 0.00 | 93 | 1026.2 |
| 20260506061003 | 27 | 96 | 1.0 | 3.0 | 0.00 | 0.04 | 0.00 | 93 | 1026.1 |
| 20260506060504 | 27 | 89 | 2.0 | 5.0 | 0.00 | 0.04 | 0.00 | 93 | 1026.0 |
| 20260506051003 | 28 | 95 | 0.0 | 3.0 | 0.00 | 0.04 | 0.04 | 93 | 1025.7 |
| 20260506050503 | 28 | 90 | 0.0 | 2.0 | 0.00 | 0.04 | 0.04 | 93 | 1025.8 |
| 20260506045003 | 28 | 90 | 0.0 | 2.0 | 0.00 | 0.04 | 0.04 | 93 | 1025.8 |
| 20260506044503 | 28 | 89 | 0.0 | 2.0 | 0.00 | 0.04 | 0.04 | 93 | 1025.8 |
| 20260506044003 | 28 | 88 | 1.0 | 3.0 | 0.00 | 0.04 | 0.04 | 93 | 1025.8 |
| 20260506043719 | 28 | 88 | 1.0 | 3.0 | 0.00 | 0.04 | 0.04 | 93 | 1025.8 |
| 20260506043003 | 28 | 88 | 1.0 | 2.0 | 0.00 | 0.04 | 0.04 | 93 | 1025.9 |
| 20260506042503 | 28 | 89 | 1.0 | 3.0 | 0.00 | 0.04 | 0.04 | 93 | 1025.9 |
| 20260506042003 | 28 | 91 | 1.0 | 3.0 | 0.00 | 0.04 | 0.04 | 93 | 1025.8 |
| 20260506041504 | 28 | 92 | 1.0 | 3.0 | 0.00 | 0.04 | 0.04 | 93 | 1025.8 |
| 20260506041219 | 28 | 92 | 1.0 | 3.0 | 0.00 | 0.04 | 0.04 | 93 | 1025.8 |
| 20260506040717 | 28 | 87 | 2.0 | 6.0 | 0.00 | 0.04 | 0.04 | 93 | 1025.7 |
| 20260506040220 | 28 | 84 | 2.0 | 6.0 | 0.00 | 0.04 | 0.04 | 93 | 1025.7 |
| 20260506035503 | 28 | 87 | 2.0 | 6.0 | 0.00 | 0.04 | 0.04 | 93 | 1025.7 |
| 20260506035004 | 28 | 89 | 2.0 | 6.0 | 0.00 | 0.04 | 0.04 | 93 | 1025.6 |
| 20260506034504 | 29 | 87 | 2.0 | 5.0 | 0.00 | 0.04 | 0.04 | 93 | 1025.7 |
| 20260506034003 | 29 | 90 | 2.0 | 5.0 | 0.00 | 0.04 | 0.04 | 93 | 1025.6 |
| 20260506033503 | 29 | 95 | 1.0 | 4.0 | 0.00 | 0.04 | 0.04 | 93 | 1025.4 |
| 20260506033003 | 29 | 94 | 0.0 | 3.0 | 0.00 | 0.04 | 0.04 | 93 | 1025.4 |
| 20260506032503 | 29 | 91 | 0.0 | 3.0 | 0.00 | 0.04 | 0.04 | 93 | 1025.4 |
| 20260506032003 | 29 | 85 | 1.0 | 7.0 | 0.00 | 0.04 | 0.04 | 93 | 1025.3 |
| 20260506031503 | 29 | 85 | 1.0 | 7.0 | 0.00 | 0.04 | 0.04 | 93 | 1025.3 |
| 20260506031003 | 29 | 85 | 2.0 | 7.0 | 0.00 | 0.04 | 0.04 | 93 | 1025.3 |
| 20260506030503 | 29 | 85 | 3.0 | 7.0 | 0.00 | 0.04 | 0.04 | 93 | 1025.1 |
| 20260506030221 | 29 | 85 | 2.0 | 7.0 | 0.00 | 0.04 | 0.04 | 93 | 1025.1 |
| 20260506025503 | 29 | 81 | 1.0 | 4.0 | 0.00 | 0.04 | 0.04 | 93 | 1024.8 |
| 20260506025003 | 29 | 96 | 1.0 | 4.0 | 0.00 | 0.04 | 0.04 | 93 | 1024.7 |
| 20260506024503 | 29 | 130 | 1.0 | 6.0 | 0.00 | 0.04 | 0.04 | 93 | 1024.7 |
| 20260506024003 | 29 | 119 | 1.0 | 6.0 | 0.00 | 0.04 | 0.04 | 93 | 1024.5 |
| 20260506023503 | 29 | 90 | 1.0 | 6.0 | 0.00 | 0.04 | 0.04 | 93 | 1024.4 |
| 20260506023003 | 29 | 92 | 1.0 | 6.0 | 0.00 | 0.04 | 0.04 | 93 | 1024.4 |
| 20260506022503 | 29 | 90 | 2.0 | 7.0 | 0.00 | 0.04 | 0.04 | 93 | 1024.3 |
| 20260506022003 | 29 | 91 | 2.0 | 7.0 | 0.00 | 0.04 | 0.04 | 93 | 1024.2 |
| 20260506021503 | 30 | 107 | 1.0 | 4.0 | 0.00 | 0.04 | 0.04 | 93 | 1024.2 |
| 20260506021220 | 30 | 104 | 1.0 | 4.0 | 0.00 | 0.04 | 0.04 | 93 | 1024.1 |
| 20260506020503 | 30 | 86 | 2.0 | 8.0 | 0.00 | 0.04 | 0.04 | 93 | 1023.9 |
| 20260506020004 | 30 | 86 | 3.0 | 8.0 | 0.00 | 0.04 | 0.04 | 92 | 1023.9 |
| 20260506015503 | 30 | 87 | 3.0 | 8.0 | 0.00 | 0.04 | 0.04 | 92 | 1023.7 |
| 20260506015003 | 30 | 87 | 1.0 | 8.0 | 0.00 | 0.04 | 0.04 | 93 | 1023.6 |
| 20260506014503 | 30 | 109 | 0.0 | 1.0 | 0.00 | 0.04 | 0.04 | 93 | 1023.3 |
| 20260506014003 | 31 | 91 | 0.0 | 2.0 | 0.01 | 0.04 | 0.04 | 93 | 1023.3 |
| 20260506013503 | 31 | 91 | 0.0 | 2.0 | 0.01 | 0.04 | 0.04 | 93 | 1023.1 |
| 20260506013219 | 31 | 89 | 0.0 | 2.0 | 0.01 | 0.04 | 0.04 | 93 | 1023.0 |
| 20260506012503 | 31 | 88 | 1.0 | 4.0 | 0.01 | 0.04 | 0.04 | 93 | 1022.9 |
| 20260506012003 | 31 | 91 | 1.0 | 6.0 | 0.01 | 0.04 | 0.04 | 93 | 1022.8 |
| 20260506011503 | 31 | 86 | 2.0 | 6.0 | 0.01 | 0.04 | 0.04 | 93 | 1022.8 |
| 20260506011003 | 31 | 85 | 2.0 | 6.0 | 0.01 | 0.04 | 0.04 | 93 | 1022.6 |
| 20260506010503 | 31 | 89 | 2.0 | 6.0 | 0.01 | 0.04 | 0.04 | 93 | 1022.6 |
| 20260506010004 | 32 | 96 | 1.0 | 4.0 | 0.01 | 0.04 | 0.04 | 93 | 1022.6 |
| 20260506005503 | 32 | 109 | 0.0 | 2.0 | 0.01 | 0.04 | 0.04 | 93 | 1022.5 |
| 20260506005003 | 32 | 102 | 0.0 | 2.0 | 0.01 | 0.04 | 0.04 | 93 | 1022.4 |
| 20260506004503 | 31 | 84 | 1.0 | 3.0 | 0.01 | 0.04 | 0.04 | 93 | 1022.5 |
| 20260506004003 | 31 | 84 | 1.0 | 3.0 | 0.00 | 0.03 | 0.03 | 93 | 1022.5 |
| 20260506003503 | 31 | 85 | 1.0 | 3.0 | 0.00 | 0.03 | 0.03 | 93 | 1022.4 |
| 20260506003004 | 31 | 84 | 1.0 | 4.0 | 0.00 | 0.03 | 0.03 | 93 | 1022.3 |
| 20260506002503 | 31 | 83 | 1.0 | 6.0 | 0.00 | 0.03 | 0.03 | 93 | 1022.4 |
| 20260506002004 | 31 | 77 | 1.0 | 6.0 | 0.00 | 0.03 | 0.03 | 93 | 1022.4 |
| 20260506001719 | 31 | 74 | 1.0 | 5.0 | 0.00 | 0.03 | 0.03 | 93 | 1022.3 |
| 20260506001003 | 31 | 61 | 1.0 | 3.0 | 0.01 | 0.03 | 0.03 | 93 | 1022.3 |
| 20260506000503 | 31 | 51 | 1.0 | 3.0 | 0.01 | 0.03 | 0.03 | 93 | 1022.5 |
| 20260506000003 | 31 | 53 | 1.0 | 3.0 | 0.01 | 0.03 | 0.03 | 93 | 1022.6 |
| 20260505235503 | 31 | 58 | 1.0 | 3.0 | 0.01 | 0.03 | 0.03 | 93 | 1022.6 |
| 20260505235003 | 31 | 63 | 1.0 | 2.0 | 0.01 | 0.03 | 0.03 | 93 | 1022.5 |
| 20260505234716 | 31 | 62 | 1.0 | 2.0 | 0.01 | 0.03 | 0.03 | 93 | 1022.6 |
| 20260505234220 | 31 | 60 | 0.0 | 2.0 | 0.01 | 0.03 | 0.03 | 93 | 1022.6 |
| 20260505233503 | 31 | 39 | 0.0 | 2.0 | 0.01 | 0.03 | 0.03 | 93 | 1022.8 |
| 20260505233003 | 31 | 88 | 0.0 | 2.0 | 0.01 | 0.03 | 0.03 | 93 | 1022.7 |
| 20260505232503 | 31 | 88 | 1.0 | 3.0 | 0.01 | 0.03 | 0.03 | 93 | 1022.9 |
| 20260505232003 | 31 | 88 | 1.0 | 3.0 | 0.01 | 0.03 | 0.03 | 92 | 1023.0 |
| 20260505231503 | 31 | 86 | 1.0 | 3.0 | 0.01 | 0.02 | 0.02 | 92 | 1023.0 |
| 20260505231003 | 31 | 88 | 1.0 | 3.0 | 0.01 | 0.02 | 0.02 | 92 | 1023.1 |
| 20260505230720 | 31 | 89 | 1.0 | 3.0 | 0.01 | 0.02 | 0.02 | 92 | 1023.0 |
| 20260505230003 | 31 | 87 | 1.0 | 3.0 | 0.01 | 0.02 | 0.02 | 92 | 1023.0 |
| 20260505225721 | 31 | 87 | 1.0 | 3.0 | 0.01 | 0.02 | 0.02 | 92 | 1023.1 |
| 20260505225003 | 31 | 87 | 1.0 | 3.0 | 0.01 | 0.02 | 0.02 | 92 | 1023.3 |
| 20260505224503 | 30 | 86 | 1.0 | 3.0 | 0.01 | 0.02 | 0.02 | 92 | 1023.2 |
| 20260505224003 | 30 | 85 | 1.0 | 3.0 | 0.01 | 0.02 | 0.02 | 92 | 1023.3 |
| 20260505223503 | 31 | 87 | 1.0 | 3.0 | 0.01 | 0.02 | 0.02 | 92 | 1023.2 |
| 20260505223003 | 31 | 86 | 1.0 | 5.0 | 0.02 | 0.02 | 0.02 | 92 | 1023.3 |
| 20260505222503 | 31 | 85 | 1.0 | 5.0 | 0.02 | 0.02 | 0.02 | 92 | 1023.4 |
| 20260505222003 | 31 | 91 | 2.0 | 4.0 | 0.02 | 0.02 | 0.02 | 92 | 1023.3 |
| 20260505221503 | 31 | 94 | 2.0 | 4.0 | 0.01 | 0.01 | 0.01 | 92 | 1023.5 |
| 20260505221003 | 31 | 92 | 2.0 | 4.0 | 0.01 | 0.01 | 0.01 | 92 | 1023.5 |
| 20260505220503 | 31 | 89 | 1.0 | 4.0 | 0.01 | 0.01 | 0.01 | 92 | 1023.4 |
| 20260505220003 | 31 | 97 | 1.0 | 7.0 | 0.01 | 0.01 | 0.01 | 92 | 1023.4 |
| 20260505215503 | 31 | 106 | 2.0 | 7.0 | 0.01 | 0.01 | 0.01 | 92 | 1023.2 |
| 20260505215220 | 31 | 108 | 2.0 | 5.0 | 0.01 | 0.01 | 0.01 | 92 | 1023.4 |
| 20260505214503 | 31 | 95 | 1.0 | 3.0 | 0.01 | 0.01 | 0.01 | 92 | 1023.5 |
| 20260505214003 | 31 | 97 | 1.0 | 4.0 | 0.01 | 0.01 | 0.01 | 92 | 1023.5 |
| 20260505213719 | 31 | 95 | 1.0 | 4.0 | 0.01 | 0.01 | 0.01 | 92 | 1023.5 |
| 20260505213003 | 31 | 91 | 1.0 | 4.0 | 0.00 | 0.00 | 0.00 | 92 | 1023.7 |